Location: Jonen
(52.7189°N, 6.0177°E)
Time: 17:06:02
(UTC+00:00)

HTV-X1 - Visible Passes

Search period start: 13 May 2026 00:00
Search period end: 23 May 2026 00:00
Orbit: 372 x 383 km, 51.6° (Epoch: 13 May)

Date Brightness Start Highest point End Pass type
(mag) Time Alt. Az. Time Alt. Az. Time Alt. Az.
13 May ? 20:22:38 10° WSW 20:25:38 51° SSE 20:28:39 10° E visible
13 May ? 21:58:19 10° W 22:01:24 73° S 22:02:31 35° ESE visible
13 May ? 23:34:13 10° W 23:34:37 13° W 23:34:37 13° W visible
14 May ? 20:57:27 10° W 21:00:32 72° S 21:03:37 10° E visible
14 May ? 22:33:16 10° W 22:35:54 48° SW 22:35:54 48° SW visible
15 May ? 21:32:22 10° W 21:35:26 67° S 21:37:08 24° ESE visible
15 May ? 23:08:20 10° W 23:09:12 16° WSW 23:09:12 16° WSW visible
16 May ? 20:31:27 10° W 20:34:32 74° S 20:37:37 10° E visible
16 May ? 22:07:18 10° W 22:10:15 42° SSW 22:10:24 42° S visible
17 May ? 21:06:19 10° W 21:09:23 59° SSW 21:11:34 17° ESE visible
17 May ? 22:42:28 10° W 22:43:38 17° WSW 22:43:38 17° WSW visible
18 May ? 21:41:16 10° W 21:44:06 33° SSW 21:44:47 29° S visible
19 May ? 20:40:13 10° W 20:43:13 49° SSW 20:45:55 12° ESE visible
19 May ? 22:16:39 10° WSW 22:18:00 15° SW 22:18:00 15° SW visible
20 May ? 21:15:13 10° W 21:17:51 26° SSW 21:19:08 19° S visible
21 May ? 21:51:09 10° WSW 21:52:13 11° SW 21:52:22 11° SW visible
22 May ? 20:49:09 10° W 20:51:29 20° SSW 20:53:31 11° SSE visible
